| time (UTC) | temp C | wind direction | speed KPH | gust KPH | rain 1hr cm | rain 24hr cm | rain mn cm | humidity % | barometer mb |
| 20260905134910 | 28 | 237 | 1.6 | 8.0 | 0.00 | 0.46 | 0.03 | 86 | 1014.9 |
| 20260905133911 | 28 | 240 | 1.6 | 6.4 | 0.00 | 0.46 | 0.03 | 88 | 1014.8 |
| 20260905132909 | 28 | 244 | 3.2 | 6.4 | 0.00 | 0.46 | 0.03 | 90 | 1014.8 |
| 20260905132838 | 27 | 256 | 1.6 | 6.4 | 0.00 | 0.46 | 0.03 | 93 | 1014.8 |
| 20260905130859 | 27 | 266 | 1.6 | 4.8 | 0.00 | 0.46 | 0.03 | 94 | 1014.8 |
| 20260905125857 | 27 | 328 | 0.0 | 3.2 | 0.00 | 0.46 | 0.03 | 94 | 1014.9 |
| 20260905124858 | 26 | 329 | 0.0 | 3.2 | 0.00 | 0.46 | 0.03 | 95 | 1014.8 |
| 20260905123857 | 26 | 329 | 0.0 | 1.6 | 0.00 | 0.46 | 0.03 | 95 | 1014.8 |
| 20260905123338 | 26 | 328 | 0.0 | 1.6 | 0.00 | 0.46 | 0.03 | 95 | 1014.6 |
| 20260905121857 | 25 | 329 | 0.0 | 0.0 | 0.00 | 0.46 | 0.03 | 95 | 1014.6 |
| 20260905121339 | 25 | 329 | 0.0 | 0.0 | 0.00 | 0.46 | 0.03 | 95 | 1014.5 |
| 20260905115856 | 25 | 328 | 0.0 | 0.0 | 0.00 | 0.46 | 0.03 | 95 | 1014.4 |
| 20260905115338 | 24 | 329 | 0.0 | 0.0 | 0.00 | 0.46 | 0.03 | 95 | 1014.5 |
| 20260905113853 | 24 | 329 | 0.0 | 0.0 | 0.00 | 0.46 | 0.03 | 95 | 1014.3 |
| 20260905112853 | 23 | 329 | 0.0 | 0.0 | 0.00 | 0.46 | 0.03 | 95 | 1014.3 |
| 20260905112802 | 24 | 329 | 0.0 | 1.6 | 0.00 | 0.46 | 0.03 | 95 | 1014.2 |
| 20260905110851 | 23 | 328 | 0.0 | 1.6 | 0.00 | 0.46 | 0.03 | 95 | 1014.2 |
| 20260905105849 | 23 | 329 | 0.0 | 0.0 | 0.00 | 0.46 | 0.03 | 95 | 1014.1 |
| 20260905105338 | 23 | 329 | 0.0 | 0.0 | 0.00 | 0.46 | 0.03 | 95 | 1013.9 |
| 20260905103845 | 23 | 329 | 0.0 | 0.0 | 0.00 | 0.46 | 0.03 | 95 | 1014.0 |
| 20260905102844 | 23 | 328 | 0.0 | 0.0 | 0.00 | 0.46 | 0.03 | 95 | 1013.8 |
| 20260905101844 | 23 | 329 | 0.0 | 0.0 | 0.00 | 0.46 | 0.03 | 95 | 1013.8 |
| 20260905100846 | 23 | 329 | 0.0 | 0.0 | 0.00 | 0.46 | 0.03 | 95 | 1013.8 |
| 20260905095831 | 23 | 328 | 0.0 | 0.0 | 0.00 | 0.46 | 0.03 | 95 | 1013.8 |
| 20260905094829 | 23 | 329 | 0.0 | 0.0 | 0.00 | 0.46 | 0.03 | 95 | 1013.8 |
| 20260905094752 | 23 | 328 | 0.0 | 0.0 | 0.00 | 0.46 | 0.03 | 95 | 1013.8 |
| 20260905092829 | 23 | 329 | 0.0 | 0.0 | 0.00 | 0.46 | 0.03 | 95 | 1013.7 |
| 20260905092308 | 23 | 328 | 0.0 | 0.0 | 0.03 | 0.46 | 0.03 | 95 | 1013.8 |
| 20260905090828 | 23 | 329 | 0.0 | 0.0 | 0.03 | 0.46 | 0.03 | 95 | 1013.7 |
| 20260905085828 | 24 | 329 | 0.0 | 0.0 | 0.03 | 0.46 | 0.03 | 95 | 1013.8 |
| 20260905084827 | 24 | 328 | 0.0 | 0.0 | 0.03 | 0.46 | 0.03 | 95 | 1013.7 |
| 20260905083829 | 24 | 329 | 0.0 | 0.0 | 0.03 | 0.46 | 0.03 | 95 | 1013.8 |
| 20260905082828 | 24 | 328 | 0.0 | 0.0 | 0.03 | 0.46 | 0.03 | 95 | 1013.8 |
| 20260905081827 | 24 | 329 | 0.0 | 1.6 | 0.00 | 0.43 | 0.00 | 95 | 1013.7 |
| 20260905080828 | 24 | 328 | 0.0 | 0.0 | 0.00 | 0.43 | 0.00 | 95 | 1013.7 |
| 20260905075828 | 24 | 329 | 0.0 | 0.0 | 0.00 | 0.43 | 0.00 | 95 | 1013.7 |
| 20260905074828 | 24 | 329 | 0.0 | 0.0 | 0.00 | 0.43 | 0.00 | 94 | 1013.6 |
| 20260905074309 | 24 | 329 | 0.0 | 0.0 | 0.00 | 0.43 | 0.00 | 94 | 1013.6 |
| 20260905072826 | 24 | 329 | 0.0 | 0.0 | 0.00 | 0.43 | 0.00 | 94 | 1013.6 |
| 20260905071827 | 24 | 329 | 0.0 | 0.0 | 0.00 | 0.43 | 0.00 | 94 | 1013.8 |
| 20260905071747 | 24 | 329 | 0.0 | 0.0 | 0.00 | 0.43 | 0.00 | 95 | 1013.8 |
| 20260905065824 | 24 | 328 | 0.0 | 0.0 | 0.00 | 0.43 | 0.00 | 94 | 1014.0 |
| 20260905064824 | 25 | 329 | 0.0 | 0.0 | 0.00 | 0.43 | 0.00 | 95 | 1014.0 |
| 20260905063813 | 24 | 329 | 0.0 | 0.0 | 0.00 | 0.43 | 0.00 | 95 | 1014.0 |
| 20260905062811 | 25 | 328 | 0.0 | 0.0 | 0.00 | 0.43 | 0.00 | 95 | 1014.0 |
| 20260905061810 | 25 | 329 | 0.0 | 0.0 | 0.00 | 0.43 | 0.00 | 94 | 1014.1 |
| 20260905061246 | 25 | 328 | 0.0 | 0.0 | 0.00 | 0.43 | 0.00 | 94 | 1014.2 |
| 20260905055805 | 25 | 329 | 0.0 | 0.0 | 0.00 | 0.43 | 0.00 | 94 | 1014.3 |
| 20260905054804 | 25 | 328 | 0.0 | 0.0 | 0.00 | 0.43 | 0.00 | 94 | 1014.4 |
| 20260905053803 | 25 | 329 | 0.0 | 0.0 | 0.00 | 0.43 | 0.00 | 94 | 1014.4 |
| 20260905052802 | 25 | 328 | 0.0 | 0.0 | 0.00 | 0.43 | 0.00 | 94 | 1014.6 |
| 20260905052245 | 25 | 329 | 0.0 | 1.6 | 0.00 | 0.43 | 0.00 | 94 | 1014.6 |
| 20260905050801 | 25 | 329 | 0.0 | 0.0 | 0.00 | 0.43 | 0.00 | 94 | 1014.8 |
| 20260905045801 | 25 | 329 | 0.0 | 0.0 | 0.00 | 0.43 | 0.00 | 94 | 1014.9 |
| 20260905044804 | 25 | 329 | 0.0 | 0.0 | 0.00 | 0.43 | 0.00 | 94 | 1015.0 |
| 20260905043801 | 25 | 328 | 0.0 | 3.2 | 0.00 | 0.43 | 0.00 | 94 | 1015.1 |
| 20260905043240 | 25 | 329 | 0.0 | 1.6 | 0.00 | 0.43 | 0.00 | 94 | 1015.1 |
| 20260905041759 | 25 | 329 | 0.0 | 1.6 | 0.00 | 0.43 | 0.00 | 94 | 1015.1 |
| 20260905040757 | 25 | 329 | 0.0 | 0.0 | 0.00 | 0.43 | 0.00 | 94 | 1015.1 |
| 20260905035752 | 25 | 329 | 0.0 | 0.0 | 0.00 | 0.43 | 0.43 | 94 | 1015.2 |
| 20260905034739 | 25 | 329 | 0.0 | 0.0 | 0.00 | 0.43 | 0.43 | 94 | 1015.1 |
| 20260905034222 | 25 | 328 | 0.0 | 0.0 | 0.00 | 0.43 | 0.43 | 94 | 1015.2 |
| 20260905032738 | 25 | 329 | 0.0 | 0.0 | 0.00 | 0.43 | 0.43 | 94 | 1015.4 |
| 20260905031740 | 25 | 329 | 0.0 | 0.0 | 0.00 | 0.43 | 0.43 | 94 | 1015.5 |
| 20260905031216 | 25 | 329 | 0.0 | 0.0 | 0.03 | 0.43 | 0.43 | 94 | 1015.5 |
| 20260905025741 | 25 | 329 | 1.6 | 6.4 | 0.03 | 0.43 | 0.43 | 94 | 1015.7 |
| 20260905024740 | 25 | 328 | 0.0 | 4.8 | 0.03 | 0.46 | 0.43 | 93 | 1015.6 |
| 20260905023740 | 25 | 328 | 0.0 | 3.2 | 0.03 | 0.46 | 0.43 | 93 | 1015.5 |
| 20260905022733 | 25 | 329 | 0.0 | 0.0 | 0.05 | 0.46 | 0.43 | 93 | 1015.3 |
| 20260905022226 | 25 | 329 | 1.6 | 4.8 | 0.05 | 0.46 | 0.43 | 93 | 1015.3 |
| 20260905020732 | 25 | 256 | 1.6 | 6.4 | 0.05 | 0.43 | 0.43 | 93 | 1015.3 |
| 20260905020700 | 25 | 242 | 0.0 | 1.6 | 0.05 | 0.43 | 0.41 | 93 | 1015.2 |
| 20260905015204 | 25 | 242 | 0.0 | 3.2 | 0.05 | 0.43 | 0.41 | 93 | 1015.1 |
| 20260905013725 | 25 | 242 | 0.0 | 4.8 | 0.05 | 0.43 | 0.41 | 93 | 1015.0 |
| 20260905012723 | 25 | 242 | 1.6 | 4.8 | 0.03 | 0.41 | 0.38 | 92 | 1015.0 |
| 20260905011715 | 25 | 242 | 1.6 | 6.4 | 0.03 | 0.41 | 0.38 | 92 | 1015.0 |
| 20260905010716 | 25 | 243 | 1.6 | 6.4 | 0.05 | 0.38 | 0.36 | 92 | 1015.3 |
| 20260905005714 | 25 | 244 | 3.2 | 8.0 | 0.05 | 0.38 | 0.36 | 91 | 1015.0 |
| 20260905004657 | 26 | 270 | 4.8 | 14.5 | 0.05 | 0.38 | 0.36 | 91 | 1015.0 |
| 20260905003656 | 26 | 224 | 6.4 | 16.1 | 0.05 | 0.38 | 0.36 | 92 | 1015.2 |
| 20260905002657 | 26 | 306 | 3.2 | 11.3 | 0.05 | 0.38 | 0.36 | 92 | 1015.3 |
| 20260905001658 | 26 | 160 | 3.2 | 12.9 | 0.05 | 0.41 | 0.36 | 92 | 1015.1 |
| 20260905000642 | 27 | 213 | 0.0 | 4.8 | 0.00 | 0.36 | 0.30 | 92 | 1015.0 |
| 20260904235642 | 27 | 213 | 0.0 | 3.2 | 0.00 | 0.38 | 0.30 | 91 | 1015.0 |
| 20260904235121 | 27 | 213 | 1.6 | 4.8 | 0.00 | 0.41 | 0.30 | 91 | 1014.8 |
| 20260904233643 | 27 | 213 | 1.6 | 6.4 | 0.00 | 0.43 | 0.30 | 92 | 1014.5 |
| 20260904232633 | 26 | 218 | 3.2 | 9.7 | 0.00 | 0.43 | 0.30 | 91 | 1014.8 |
| 20260904232108 | 26 | 208 | 1.6 | 11.3 | 0.00 | 0.43 | 0.30 | 91 | 1014.8 |
| 20260904230631 | 26 | 90 | 3.2 | 9.7 | 0.00 | 0.43 | 0.30 | 91 | 1014.5 |
| 20260904225630 | 27 | 84 | 0.0 | 4.8 | 0.00 | 0.43 | 0.30 | 91 | 1014.1 |
| 20260904225051 | 26 | 15 | 0.0 | 4.8 | 0.00 | 0.43 | 0.30 | 91 | 1013.8 |
| 20260904224715 | 26 | 84 | 1.6 | 6.4 | 0.00 | 0.43 | 0.30 | 91 | 1014.0 |
| 20260904222628 | 26 | 15 | 0.0 | 4.8 | 0.00 | 0.43 | 0.30 | 92 | 1014.3 |
| 20260904221631 | 26 | 10 | 1.6 | 6.4 | 0.00 | 0.43 | 0.30 | 92 | 1014.1 |
| 20260904220631 | 26 | 15 | 0.0 | 1.6 | 0.05 | 0.43 | 0.30 | 91 | 1013.8 |
| 20260904215615 | 26 | 15 | 0.0 | 1.6 | 0.30 | 0.43 | 0.30 | 91 | 1013.0 |
| 20260904214616 | 26 | 15 | 0.0 | 4.8 | 0.30 | 0.43 | 0.30 | 90 | 1013.1 |
| 20260904213615 | 26 | 15 | 8.0 | 20.9 | 0.30 | 0.43 | 0.30 | 89 | 1013.6 |
| 20260904212615 | 26 | 42 | 8.0 | 19.3 | 0.30 | 0.43 | 0.30 | 90 | 1014.1 |
| 20260904211614 | 26 | 10 | 6.4 | 16.1 | 0.30 | 0.43 | 0.30 | 89 | 1014.5 |
| 20260904211055 | 27 | 358 | 6.4 | 16.1 | 0.25 | 0.38 | 0.25 | 86 | 1014.7 |
| 20260904205614 | 28 | 263 | 6.4 | 19.3 | 0.00 | 0.13 | 0.00 | 82 | 1014.7 |
| 20260904204615 | 29 | 200 | 11.3 | 25.7 | 0.00 | 0.13 | 0.00 | 78 | 1014.1 |
| 20260904203614 | 31 | 156 | 11.3 | 25.7 | 0.00 | 0.13 | 0.00 | 72 | 1013.9 |
| 20260904202615 | 33 | 175 | 6.4 | 14.5 | 0.00 | 0.13 | 0.00 | 65 | 1013.3 |
| 20260904201615 | 34 | 249 | 4.8 | 12.9 | 0.00 | 0.13 | 0.00 | 62 | 1013.2 |
| 20260904201051 | 32 | 195 | 8.0 | 19.3 | 0.00 | 0.13 | 0.00 | 65 | 1013.1 |
| 20260904195615 | 33 | 227 | 11.3 | 24.1 | 0.00 | 0.13 | 0.00 | 63 | 1013.2 |
| 20260904195052 | 34 | 190 | 8.0 | 16.1 | 0.00 | 0.13 | 0.00 | 63 | 1013.5 |
| 20260904193610 | 34 | 204 | 6.4 | 14.5 | 0.00 | 0.13 | 0.00 | 64 | 1013.6 |
| 20260904192611 | 32 | 222 | 8.0 | 16.1 | 0.00 | 0.13 | 0.00 | 67 | 1013.9 |
| 20260904191611 | 32 | 263 | 8.0 | 16.1 | 0.00 | 0.13 | 0.00 | 66 | 1014.1 |
| 20260904190607 | 33 | 246 | 4.8 | 14.5 | 0.00 | 0.13 | 0.00 | 64 | 1014.0 |
| 20260904185607 | 35 | 157 | 4.8 | 14.5 | 0.00 | 0.13 | 0.00 | 60 | 1014.1 |
| 20260904184609 | 35 | 202 | 8.0 | 16.1 | 0.00 | 0.13 | 0.00 | 61 | 1014.2 |
| 20260904183602 | 33 | 233 | 3.2 | 11.3 | 0.00 | 0.13 | 0.00 | 64 | 1014.3 |
| 20260904182603 | 33 | 223 | 3.2 | 6.4 | 0.00 | 0.13 | 0.00 | 64 | 1014.6 |
| 20260904181601 | 33 | 225 | 6.4 | 14.5 | 0.00 | 0.13 | 0.00 | 61 | 1014.7 |
| 20260904181032 | 34 | 139 | 6.4 | 19.3 | 0.00 | 0.13 | 0.00 | 60 | 1014.7 |
| 20260904180027 | 33 | 190 | 6.4 | 16.1 | 0.00 | 0.13 | 0.00 | 66 | 1014.9 |
| 20260904174545 | 33 | 145 | 6.4 | 14.5 | 0.00 | 0.13 | 0.00 | 63 | 1015.0 |
| 20260904173537 | 34 | 147 | 6.4 | 14.5 | 0.00 | 0.13 | 0.00 | 62 | 1014.9 |
| 20260904172536 | 34 | 194 | 8.0 | 22.5 | 0.00 | 0.13 | 0.00 | 64 | 1015.1 |
| 20260904171537 | 33 | 151 | 8.0 | 17.7 | 0.00 | 0.13 | 0.00 | 65 | 1015.2 |
| 20260904170536 | 34 | 178 | 6.4 | 17.7 | 0.00 | 0.13 | 0.00 | 63 | 1015.3 |
| 20260904165534 | 33 | 201 | 4.8 | 11.3 | 0.00 | 0.13 | 0.00 | 67 | 1015.5 |
| 20260904164536 | 32 | 173 | 8.0 | 17.7 | 0.00 | 0.13 | 0.00 | 69 | 1015.7 |
| 20260904163535 | 32 | 236 | 6.4 | 16.1 | 0.00 | 0.13 | 0.00 | 70 | 1015.8 |
| 20260904162536 | 33 | 224 | 4.8 | 11.3 | 0.00 | 0.13 | 0.00 | 67 | 1015.9 |
| 20260904161533 | 33 | 217 | 8.0 | 19.3 | 0.00 | 0.13 | 0.00 | 68 | 1016.0 |
| 20260904161014 | 32 | 217 | 8.0 | 19.3 | 0.00 | 0.13 | 0.00 | 71 | 1016.1 |
| 20260904155535 | 33 | 177 | 8.0 | 19.3 | 0.00 | 0.13 | 0.00 | 69 | 1016.2 |
| 20260904154532 | 32 | 163 | 8.0 | 19.3 | 0.00 | 0.13 | 0.00 | 70 | 1016.3 |
| 20260904154016 | 32 | 119 | 8.0 | 16.1 | 0.00 | 0.13 | 0.00 | 72 | 1016.2 |
| 20260904152934 | 31 | 214 | 8.0 | 17.7 | 0.00 | 0.13 | 0.00 | 73 | 1016.1 |
| 20260904152609 | 32 | 173 | 8.0 | 17.7 | 0.00 | 0.13 | 0.00 | 73 | 1016.2 |
| 20260904150532 | 31 | 119 | 8.0 | 17.7 | 0.00 | 0.13 | 0.00 | 76 | 1016.2 |
| 20260904145532 | 31 | 115 | 6.4 | 16.1 | 0.00 | 0.13 | 0.00 | 76 | 1016.1 |
| 20260904144517 | 31 | 198 | 6.4 | 14.5 | 0.00 | 0.13 | 0.00 | 77 | 1016.0 |
| 20260904144439 | 31 | 138 | 3.2 | 12.9 | 0.00 | 0.13 | 0.00 | 79 | 1016.0 |
| 20260904142519 | 30 | 194 | 4.8 | 11.3 | 0.00 | 0.13 | 0.00 | 80 | 1015.9 |
| 20260904141517 | 30 | 190 | 3.2 | 11.3 | 0.00 | 0.13 | 0.00 | 84 | 1015.8 |
| 20260904140517 | 30 | 197 | 4.8 | 12.9 | 0.00 | 0.13 | 0.00 | 85 | 1015.8 |